Reflectivity
-20 -20 -20 -20 -0 -20 2 -20 1 -20 -20 -11 11 13 -6 -6 3 22 11 -17 21 17 14 3 4 22 -9 -8 6 -6 -15 16 9 10 5 -6 -20 -9 -20 -20 -20 -20 -20 2 -2 13 8 -20 -20 -20 -20 -20 -20 -20
-20 -20 -10 -19 11 9 -20 -14 -20 -20 -20 10 -18 -6 -8 7 3 -18 12 20 23 5 18 21 16 -20 -20 -20 -2 -20 -9 -20 0 5 12 -10 -18 -19 -20 -14 -20 -20 -19 -5 -7 -2 -20 -20 -20 -20 -20 -20 -20 -20
-12 -17 -5 -20 7 -16 4 1 -7 -13 -20 -20 -19 4 -14 20 14 8 -20 -17 15 20 31 24 3 -8 -20 -20 -18 -0 -5 -20 -20 -7 -1 -18 -20 -20 -20 -20 -20 -20 -20 -20 -20 -20 -20 -20 -20 -20 -20 -20 -20 -20
-7 -13 12 5 -5 -20 -20 -20 -20 -20 -20 -20 4 22 20 13 -0 -9 -5 -1 19 31 14 -20 -19 -20 -20 -20 -20 -12 -6 6 4 -16 -2 2 -4 -20 -20 -20 -20 -20 -20 -19 -20 -20 -20 -20 -20 -20 -20 -20 -20 -20
15 -12 -13 -20 -20 -20 -20 -20 -20 8 -8 26 1 22 25 17 -6 7 23 36 17 15 17 1 -20 -20 -20 -20 -20 -20 -16 -20 -16 11 2 -6 -19 -20 -20 -20 -20 -20 -10 -2 -20 -20 -20 -20 -20 -20 -20 -20 -20 -20
33 30 -1 5 23 8 9 2 29 22 5 22 26 26 21 14 28 24 31 23 9 -13 8 5 -17 -20 -20 -20 -20 -20 -20 -20 -20 2 0 -6 -20 -20 -19 -20 -20 -10 3 -19 -20 -20 -20 -20 -20 -20 -20 -20 -20 -20
35 42 23 18 28 25 20 18 17 13 25 12 23 28 34 36 26 20 7 -6 -16 -19 4 7 -19 -20 -20 -20 -20 -20 -20 -20 -20 -9 -19 -20 -20 -4 -14 -20 -20 2 -16 -20 -20 -20 -20 -20 -20 -20 -20 -20 -20 -20
34 37 34 36 31 32 33 34 34 26 37 38 29 18 11 20 16 15 5 -20 6 9 -11 -7 -1 -20 -20 -20 -20 -20 -20 -20 -20 -18 -20 -20 -20 -20 -20 -20 -20 -20 -20 -20 -20 -20 -20 -20 -20 -20 -20 -20 -20 -20
31 37 34 21 22 19 23 25 23 18 4 16 11 -6 2 3 8 -1 -9 -15 -18 -17 -20 -20 -20 -8 -20 -20 -20 -20 -20 -20 -20 -20 -20 -20 -20 -20 -20 -20 -20 -20 -20 -20 -20 -20 -20 -20 -20 -20 -20 -20 -20 -20
34 31 14 7 7 3 -1 -3 -20 -20 -20 -20 -20 -20 -20 -20 -20 -20 -20 -20 -20 -20 -20 -20 -20 -20 -20 -20 -20 -20 -20 -20 -20 -20 -20 -19 -20 -20 -20 -20 -20 -20 -20 -20 -20 -20 -20 -20 -20 -20 -20 -20 -20 -20
21 10 -20 -20 -17 4 -8 -20 -20 -20 -20 -20 -20 -9 -20 -20 -20 -20 -20 -20 -20 -20 -20 -20 -20 -20 -20 -20 -20 -20 -20 -20 -20 -12 -3 -1 -20 -17 -20 -20 -20 -20 -20 -20 -20 -20 -20 -20 -20 -20 -20 -20 -20 -20
5 2 -2 -20 -10 -12 -20 -20 -20 -20 -20 -20 -20 -20 -20 -20 -20 -20 -20 -20 -20 -20 -20 -20 -20 -20 -20 -20 -20 -20 -20 -20 -20 -8 4 -9 -20 -20 -20 -20 -20 -20 -20 -20 -20 -20 -20 -20 -20 -20 -20 -20 -20 -20
14 6 -2 -2 -8 -20 -20 -20 -20 -20 -20 -20 -20 -20 -20 -20 -20 -20 -20 -20 -20 -20 -20 -20 -20 -20 -20 -20 -20 -20 -20 -20 -20 2 -7 -20 -18 -20 -20 -20 -20 -20 -20 -20 -20 -20 -20 -20 -20 -20 -20 -20 -20 -20
13 13 11 -1 -20 -20 -20 -20 -20 -20 -20 -20 -20 -20 -20 -20 -20 -20 -20 -20 -20 -20 -20 -20 -20 -20 -20 -20 -20 -20 -20 -20 -1 -2 -20 -20 -20 -20 -20 -20 -20 -20 -20 -20 -20 -20 -20 -20 -20 -20 -20 -20 -18 -20
20 22 -11 -20 -20 -20 -20 -20 -20 -20 -20 -20 -20 -20 -20 -20 -20 -20 -20 -17 -20 -20 -20 -20 -20 -20 -20 -20 -20 -20 -20 -20 -20 -20 -20 -20 -20 -20 -20 -20 -20 -20 -20 -20 -20 -20 -20 -20 -20 -20 -20 -20 -6 -3
13 7 3 -20 -20 -20 -20 -20 -20 -20 -20 -20 -20 -20 -20 -20 -20 -20 -7 -20 -20 -20 -20 -20 -20 -20 -20 -20 -20 -20 -20 -20 -20 -20 -20 -20 -20 -20 -20 -20 -20 -20 -20 -20 -20 -20 -20 -20 -20 -20 -20 -20 -14 -20
-2 14 -14 -20 -20 -20 -20 -20 -20 -20 -20 -20 -20 -20 -20 -20 -20 -20 -20 -20 -20 -20 -20 -20 -20 -20 -20 -20 -20 -20 -20 -20 -20 -20 -20 -20 -20 -20 -20 -20 -20 -20 -20 -20 -20 -20 -20 -20 -20 -20 -20 -10 0 2
-13 -20 -20 -20 -20 -20 -20 -20 -20 -20 -20 -20 -11 -17 -20 -20 -19 -20 -20 -20 -18 -20 -20 -20 -20 -20 -20 -20 -20 -20 -20 -20 -20 -20 -20 -20 -20 -20 -20 -20 -20 -20 -20 -20 -20 -20 -20 -20 -20 -20 -12 3 -5 -18
-20 -20 -20 -20 -20 -20 -20 -20 -20 -20 -6 -4 -3 -20 -20 -20 -20 -20 -20 -20 -20 -20 -20 -20 -20 -20 -20 -20 -20 -20 -9 -5 -18 -20 -20 -20 -20 -20 -20 -20 -20 -20 -20 -20 -20 -20 -20 -20 -12 -2 5 -2 2 1
-20 -20 -20 -20 -20 -20 -20 -20 -20 -20 -16 -20 -20 -20 -20 -20 -20 -16 -20 -20 -16 -20 -20 -20 -20 -20 -20 -20 -20 -20 -16 -16 -19 -20 -20 -20 -20 -20 -20 -20 -20 -20 -7 -20 -20 -9 -7 -13 2 6 -0 5 7 -4
-20 -20 -20 -20 -20 -20 -20 -20 -20 -20 -20 -20 -20 -20 -20 -20 -20 -20 -20 -20 -20 -20 -20 -20 -20 -20 -20 -20 -20 -20 -20 -20 -20 -20 -20 -20 -20 -20 -13 -2 -3 -6 -6 -20 -19 -20 -4 -1 -0 5 1 -1 -4 -16
-20 -20 -20 -20 -20 -20 -20 -20 -20 -20 -20 -20 -20 -20 -20 -20 -20 -20 -20 -20 -20 -20 -20 -20 -20 -20 -20 -20 -20 -4 -3 -16 -20 -20 -8 -9 -20 -20 -20 -20 -2 -20 -20 -20 -15 -20 -17 0 4 -5 -4 -19 -13 -3
-20 -20 -20 -20 -20 -20 -20 -20 -20 -20 -20 -20 -20 -20 -20 -20 -20 -20 -20 -20 -20 -20 -20 -20 -20 -20 -20 -20 -20 -20 -20 -10 -19 -20 -13 -7 -4 -6 -3 -20 -20 -20 -20 -20 -11 -1 -1 -2 -12 -18 -17 -20 -17 -17
-20 -20 -20 -20 -20 -20 -20 -20 -20 -20 -20 -20 -20 -20 -20 -20 -20 -20 -20 -20 -20 -20 -20 -20 -20 -20 -20 -20 -20 -20 -20 -8 -7 -10 -20 -1 -3 -20 -20 -20 -20 -20 -11 -20 -20 -2 -1 -5 -17 -17 -18 -20 -16 -11
-20 -20 -20 -20 -20 -20 -20 -20 -20 -20 -20 -20 -20 -20 -20 -20 -20 -20 -20 -20 -20 -20 -20 -20 -20 -12 -9 -20 -20 -20 -20 -4 -3 -19 -20 -20 -20 -20 -20 -5 -20 -20 -2 -1 1 -4 -3 -8 -4 -3 -3 -5 -17 1
-20 -20 -20 -20 -20 -20 -20 -20 -20 -20 -20 -20 -20 -20 -20 -20 -20 -20 -20 -20 -20 -20 -20 -20 -20 -20 -11 -3 -11 -20 -20 -14 -9 -10 -20 -20 -15 2 -20 -20 -20 -11 -20 -6 -1 -2 -9 -20 -14 -3 1 2 2 5
-20 -20 -20 -20 -20 -20 -20 -20 -20 -20 -20 -20 -20 -20 -20 -20 -20 -20 -20 -20 -20 -20 -20 -20 -20 -20 -20 -20 -20 -20 -20 -3 1 -20 -20 -20 -5 -20 -19 -12 -10 -20 -10 2 4 -10 -16 -19 -17 -17 -19 -20 -13 5
-20 -20 -20 -20 -20 -20 -20 -20 -20 -20 -20 -20 -20 -20 -20 -20 -20 -20 -20 -20 -20 -20 -20 -20 -20 -20 -17 -20 -20 -20 -20 -20 -20 3 -4 -4 -3 -20 -20 -3 2 -5 -18 -19 -20 -20 -20 -20 -20 -12 -20 -19 3 2
-20 -20 -20 -20 -20 -20 -20 -20 -20 -20 -20 -20 -20 -20 -20 -20 -20 -20 -20 -20 -20 -20 -20 -20 -20 -20 -11 1 -6 -20 -11 -20 -20 -20 -20 -20 -20 -19 -7 -2 -17 -17 -19 -15 -0 -13 -16 -6 -17 -7 -6 -9 9 13
-20 -20 -20 -20 -20 -20 -20 -20 -20 -20 -20 -20 -20 -20 -20 -20 -20 -20 -20 -20 -20 -20 -20 -20 -17 -20 -20 -20 -20 -20 -2 -3 -4 -2 -10 -18 -9 5 2 -4 0 9 1 -1 1 10 2 6 12 13 8 -2 -11 -20
-20 -20 -20 -20 -20 -20 -20 -20 -20 -20 -20 -20 -20 -20 -20 -20 -20 -20 -20 -20 -20 -20 -20 -20 -20 -20 -20 -20 -20 -20 -16 -3 4 6 7 -0 -6 -8 -4 9 13 11 7 5 -14 -17 -5 -4 -7 -8 -6 -15 -9 -3
-20 -20 -20 -20 -20 -20 -20 -20 -20 -20 -20 -20 -20 -20 -20 -20 -20 -20 -20 -20 -20 -20 -20 -20 -20 -20 -18 -18 1 7 13 10 6 7 8 7 2 -13 -7 5 9 10 6 -11 -20 -13 -11 -20 -19 -20 -17 -17 -20 -18
-20 -20 -20 -20 -20 -20 -20 -20 -20 -20 -20 -20 -20 -20 -20 -20 -20 -20 -20 -20 -19 -20 -20 -20 -20 -15 -12 0 6 3 7 10 14 10 9 7 6 4 -1 2 -3 -20 -20 -17 -8 -19 -20 -20 -20 -20 -20 -20 -20 -20
Wind_Speed
28 27 27 26 27 27 27 25 24 24 24 25 23 23 23 23 24 12 2 1 5 3 3 3 3 5 4 8 6 6 5 4 4 6 5 4 5 7 6 7 5 9 6 6 9 6 11 3 4 5 7 10 9 7
28 28 28 28 28 28 27 27 25 25 26 25 23 24 23 23 19 14 4 2 3 6 3 2 1 4 4 4 4 9 1 4 4 5 4 2 4 3 7 6 3 6 5 3 4 2 4 3 6 6 6 9 5 3
27 29 29 29 30 29 29 27 27 26 25 26 25 24 21 25 28 9 6 6 4 4 3 3 3 3 3 4 2 3 1 0 3 1 1 1 4 3 5 7 4 3 2 4 4 7 6 6 6 6 5 4 2 2
27 29 31 31 31 32 30 28 28 29 28 28 25 20 27 28 23 13 5 1 5 4 3 4 2 2 3 1 3 3 3 4 4 1 2 3 3 2 2 3 4 3 5 5 8 3 5 6 5 7 3 0 3 4
25 29 42 36 32 34 35 31 27 25 22 18 27 27 28 28 28 15 7 0 3 2 4 5 5 3 4 2 4 6 7 6 3 2 3 4 1 3 0 2 6 5 6 6 7 3 5 3 5 5 4 4 4 4
21 40 13 15 16 19 23 25 25 27 34 33 30 28 29 31 27 7 4 4 0 1 4 4 3 3 4 6 7 8 3 1 2 2 3 3 1 3 4 5 3 4 4 4 3 3 2 3 1 5 7 8 7 7
20 3 25 25 27 29 30 32 33 33 31 34 32 29 25 15 8 5 3 5 3 1 4 5 4 3 2 2 2 2 3 1 1 1 3 2 3 3 4 9 2 3 2 2 1 1 5 7 6 7 6 10 11 11
12 15 20 24 27 28 29 30 32 32 31 29 27 23 25 23 11 6 6 6 0 4 3 4 3 4 1 2 2 1 2 1 1 1 2 2 2 2 6 5 2 2 3 3 3 1 4 7 9 11 9 9 11 12
16 16 26 27 27 28 29 29 29 29 30 29 28 21 5 6 4 3 2 5 3 3 3 3 6 4 3 2 2 2 1 2 1 3 2 2 4 6 3 3 6 4 1 2 4 6 8 9 10 11 11 12 13 14
19 23 23 24 25 25 27 28 28 27 23 14 5 4 4 3 4 1 1 2 4 3 2 2 1 4 3 3 2 3 1 1 2 2 2 4 6 7 4 2 7 4 3 3 4 7 9 11 11 13 14 14 14 15
24 24 23 23 24 25 26 24 20 13 6 3 4 4 3 3 1 3 3 2 2 2 1 3 1 5 1 3 3 1 2 1 3 2 3 3 4 5 6 5 4 2 2 3 6 10 11 13 13 14 16 16 16 17
23 23 23 23 23 24 21 16 10 6 3 6 9 6 2 4 3 4 2 1 2 2 2 2 3 3 3 1 2 2 2 2 3 2 3 4 4 10 7 4 1 2 4 7 8 10 12 13 13 13 14 15 16 17
24 24 23 24 22 19 13 11 18 22 7 3 5 5 2 2 3 4 5 2 3 4 4 4 4 2 3 2 3 2 4 2 0 3 4 2 6 7 4 1 4 5 5 8 12 12 12 13 14 13 14 15 16 16
24 23 23 22 19 18 20 18 10 5 4 4 2 4 2 2 2 2 2 3 3 3 5 4 3 1 2 3 1 3 2 2 3 4 5 3 7 5 1 3 6 10 9 9 11 12 12 12 14 14 13 14 14 16
25 25 24 21 19 16 13 11 8 5 4 4 2 3 3 2 2 2 2 2 2 3 3 4 3 1 2 3 0 2 3 4 4 4 1 4 5 1 4 7 9 9 9 9 11 11 12 13 13 15 14 13 14 14
26 20 12 16 14 10 8 6 5 3 4 3 4 4 3 3 3 3 3 4 1 2 2 2 3 2 2 1 3 5 3 5 1 1 1 2 2 5 7 9 11 10 10 11 10 12 13 13 13 15 16 15 15 15
13 4 11 13 13 16 15 5 4 7 4 4 3 3 3 4 4 3 2 3 2 1 1 1 2 1 2 2 3 3 4 3 3 1 2 5 7 8 9 11 12 10 11 11 11 12 13 12 13 13 15 14 13 12
7 6 6 5 4 5 4 6 4 4 6 3 2 3 3 3 4 3 2 1 1 1 1 1 3 3 3 3 3 0 2 3 4 6 7 8 8 9 10 11 11 11 12 12 11 12 13 13 12 10 12 11 10 10
11 9 11 10 6 5 4 5 4 4 4 2 3 3 3 3 4 3 3 2 3 2 3 1 2 3 3 1 3 4 5 6 7 8 9 10 9 10 9 9 11 11 11 11 12 9 10 12 11 10 8 8 7 7
16 17 12 17 7 4 4 4 3 3 3 2 2 3 2 3 2 2 4 4 2 1 1 2 3 1 2 3 4 6 7 8 8 9 11 8 6 8 9 9 9 10 10 10 9 13 8 8 6 6 6 6 6 6
7 8 11 6 5 7 5 3 4 3 2 3 1 2 2 1 2 2 2 4 1 1 2 1 2 3 4 6 6 7 8 8 8 8 10 11 8 8 9 8 8 8 8 7 8 8 9 7 6 6 5 5 3 4
3 6 3 5 5 4 5 4 2 2 2 2 2 2 1 1 1 2 3 1 2 1 1 2 4 6 7 8 8 9 10 10 9 9 14 13 8 7 7 7 7 8 7 8 7 7 7 6 6 3 4 4 5 1
4 4 4 5 5 5 2 2 1 4 1 2 1 2 2 1 1 2 2 1 2 1 2 3 6 8 10 11 11 10 9 9 8 8 8 7 7 7 7 8 7 8 8 7 6 6 6 8 4 3 3 3 3 3
8 7 6 5 4 3 0 3 2 2 2 2 1 2 1 2 3 1 1 0 1 1 3 7 7 8 8 8 7 7 7 6 7 8 7 7 7 7 6 7 7 7 7 6 6 5 4 3 3 2 2 3 4 5
6 7 4 5 2 3 4 2 3 2 2 2 1 1 1 2 1 1 1 1 3 4 6 7 7 7 7 8 7 8 8 7 7 8 7 6 6 7 7 6 6 6 4 5 3 2 1 2 2 3 3 4 6 7
6 4 4 3 2 2 2 2 2 2 1 1 2 1 1 1 1 1 2 4 4 6 7 8 8 9 8 7 9 9 9 7 7 7 7 5 5 6 6 6 6 2 2 3 1 1 3 3 3 4 5 9 14 9
4 3 2 2 1 1 2 2 1 0 2 2 1 2 1 2 1 2 2 2 4 6 7 7 7 7 9 9 8 8 8 8 6 7 5 4 4 4 5 5 5 3 3 1 2 5 7 8 9 9 10 9 9 10
3 3 3 2 2 2 2 1 1 2 1 1 2 1 1 1 3 3 3 5 7 7 7 7 6 6 8 8 8 8 7 7 7 2 0 0 2 3 5 3 1 4 4 5 7 7 8 8 9 10 11 11 10 10
3 3 1 3 2 3 3 2 1 1 3 2 3 2 2 2 2 3 3 6 6 6 6 7 7 7 7 6 5 6 5 6 7 6 6 5 4 4 6 4 4 4 5 7 16 13 13 11 11 11 12 10 10 10
3 3 1 2 2 2 2 2 1 2 2 2 3 3 2 1 2 2 4 6 6 6 6 7 7 7 7 8 8 10 3 4 4 4 4 4 4 4 4 6 5 4 5 7 10 13 21 14 15 11 12 10 10 11
2 2 1 2 2 1 2 3 2 2 1 1 1 2 2 3 2 1 4 6 6 6 6 7 8 7 7 8 8 8 7 5 6 6 4 3 4 5 6 7 7 7 7 9 8 9 10 11 11 13 14 14 15 13
3 3 2 1 1 1 1 2 1 1 1 1 1 1 2 2 1 2 4 7 7 7 10 8 7 8 9 8 7 7 13 4 3 4 6 4 5 6 6 6 6 7 8 10 10 10 13 14 12 13 13 15 14 13
0 0 1 0 1 1 2 2 2 1 1 1 2 2 2 2 2 2 3 5 5 7 8 8 8 7 9 9 9 8 12 8 12 13 13 12 12 10 6 5 6 8 11 10 10 11 14 16 13 13 13 13 12 12
Wind_Direction
259 265 267 265 266 262 258 258 256 256 255 252 245 243 241 235 227 189 117 202 181 156 125 163 209 181 157 194 189 123 138 186 173 229 229 178 238 197 256 234 194 202 210 211 227 253 247 156 134 228 97 121 128 110
263 264 265 264 263 259 256 254 254 253 252 248 251 245 233 234 193 143 130 119 49 90 76 171 57 25 352 8 177 183 116 146 196 220 212 216 208 181 231 240 148 237 239 300 295 2 83 86 86 103 134 139 131 108
262 264 264 264 263 261 257 254 254 252 249 249 247 237 230 164 156 120 122 138 95 115 130 171 153 131 110 16 333 160 188 68 151 345 54 74 242 251 200 235 226 220 170 233 295 160 165 141 138 122 99 112 99 10
268 270 268 262 260 257 252 251 252 253 247 241 237 190 153 144 135 118 114 146 97 115 120 117 177 117 353 341 196 130 82 102 49 197 192 213 223 219 253 354 264 10 146 237 258 222 198 223 220 177 145 237 289 289
275 283 279 251 254 258 253 245 239 245 226 189 149 145 141 131 113 91 82 350 34 84 128 129 123 43 9 127 150 174 171 161 146 156 200 220 72 187 108 291 238 181 202 216 261 65 228 81 224 169 258 272 275 292
291 289 233 196 129 113 117 122 120 112 113 110 110 118 124 120 116 108 85 322 111 243 119 142 75 90 72 89 95 97 100 135 165 190 200 199 40 220 237 251 291 201 252 337 302 77 325 326 291 268 267 272 259 274
283 263 109 108 105 103 102 103 103 102 109 116 118 119 111 82 65 72 91 128 153 271 103 119 135 100 88 99 70 86 66 63 135 231 240 219 178 222 251 249 158 201 193 172 198 298 261 254 276 304 306 280 281 280
186 124 113 116 113 113 112 111 108 109 110 109 108 110 108 103 96 57 32 67 118 98 68 125 101 157 162 120 112 1 122 152 69 208 190 218 141 225 253 244 124 180 184 175 138 348 305 295 290 287 289 284 283 281
130 131 106 105 108 109 111 115 117 122 123 122 122 124 99 41 63 85 20 53 54 36 114 156 157 148 166 107 99 138 262 197 64 237 215 215 191 223 267 190 183 161 126 46 324 298 286 277 284 289 291 287 284 284
134 122 116 112 112 114 115 115 115 116 116 111 70 61 78 47 323 223 59 56 37 22 37 90 88 119 208 156 113 140 244 218 236 171 122 233 249 224 151 107 93 96 68 11 338 313 321 307 297 295 292 291 286 286
135 125 119 116 115 116 116 116 113 107 73 49 63 64 75 303 173 36 70 42 25 100 61 81 44 130 45 172 123 348 163 154 241 145 246 238 249 130 132 126 109 68 354 304 280 276 280 280 284 289 289 288 287 285
130 127 123 121 120 120 119 111 79 57 32 83 101 97 83 32 65 84 45 130 221 135 108 142 91 60 103 311 120 159 173 194 244 110 247 247 115 143 154 152 164 313 299 292 291 283 282 283 281 281 281 280 280 281
128 125 122 122 118 118 108 92 100 117 111 78 60 68 2 12 86 183 167 161 176 160 149 160 124 83 143 85 94 167 184 210 75 225 238 275 146 168 147 210 292 304 286 280 290 289 287 285 285 280 279 277 278 277
123 125 122 117 115 110 110 109 103 76 57 60 64 65 7 114 65 57 51 83 72 123 140 124 100 78 104 89 95 187 96 230 237 235 236 176 172 149 172 299 295 298 298 289 288 292 288 284 283 283 277 278 279 274
109 111 108 108 109 103 96 90 71 42 53 71 23 73 66 88 63 53 27 154 93 105 140 118 93 99 86 108 336 127 188 236 232 238 48 159 136 144 290 298 299 297 295 288 289 289 286 287 286 285 283 277 275 275
101 88 95 101 94 85 82 69 41 73 61 64 65 105 99 136 109 130 117 109 45 107 133 57 101 131 129 122 190 215 232 230 227 214 144 141 276 302 302 307 302 296 288 284 282 284 288 289 286 284 287 283 279 273
73 64 109 99 88 65 42 64 52 47 63 52 62 39 64 55 78 77 40 65 358 279 97 148 179 150 93 215 243 211 227 349 6 351 309 306 299 302 303 298 295 290 288 288 287 286 286 287 287 284 281 282 279 281
80 99 92 65 57 55 45 29 75 63 68 62 80 61 68 56 101 89 72 72 301 76 203 68 129 197 220 224 226 297 324 335 303 300 297 296 292 285 286 289 293 290 290 289 285 283 284 286 283 282 286 293 295 287
80 65 58 57 70 82 60 40 14 83 66 51 74 33 51 79 65 67 75 69 51 45 119 138 235 232 248 5 320 321 309 303 300 297 289 288 279 275 281 287 287 282 279 285 289 289 287 281 277 285 300 300 298 309
73 51 48 44 46 75 76 41 352 75 85 74 49 56 40 49 1 46 61 28 18 5 218 223 243 13 330 337 308 299 298 299 295 291 285 286 298 303 282 287 287 290 290 290 287 286 288 286 291 299 303 314 320 326
38 8 27 51 50 55 69 13 63 39 95 72 29 350 63 21 47 36 51 344 233 234 253 343 335 338 324 295 290 287 283 279 273 271 283 291 292 283 281 281 286 288 288 290 291 296 304 293 303 306 313 315 327 339
10 11 64 30 75 66 79 18 34 43 46 73 104 337 65 93 58 48 323 257 248 337 295 316 325 318 309 300 299 290 288 281 269 269 275 281 286 285 284 290 292 284 282 281 283 287 292 301 301 323 331 351 347 352
35 35 50 22 77 43 39 315 56 11 74 72 205 134 75 74 38 315 248 280 305 271 273 295 305 296 289 294 294 288 281 278 279 276 278 279 280 280 277 274 270 275 280 280 281 284 292 300 321 344 356 13 25 40
34 47 40 39 19 81 304 42 44 69 70 34 19 96 69 358 329 243 265 225 31 297 315 330 318 310 305 299 300 303 301 295 286 279 276 277 277 278 276 279 276 269 267 276 278 286 296 335 16 22 38 58 63 69
66 3 16 28 21 47 44 37 9 53 68 17 2 61 68 315 286 298 321 45 349 340 331 323 315 308 301 299 300 301 299 287 286 288 285 274 274 278 278 281 286 277 271 279 281 298 358 46 63 72 74 85 90 82
69 343 33 14 4 40 25 58 36 29 38 43 46 16 297 289 303 1 29 359 339 328 327 321 316 312 306 302 301 303 303 299 284 275 281 272 262 286 298 303 307 318 339 294 284 103 94 102 119 114 104 100 97 89
78 30 29 29 2 104 100 78 70 63 63 31 8 346 346 35 337 54 34 48 321 319 312 304 300 296 296 302 299 296 297 300 292 278 271 274 288 298 284 291 316 331 324 50 85 95 92 85 84 82 81 75 73 79
70 14 57 342 50 359 117 56 47 58 26 21 267 343 120 14 16 9 355 345 319 313 304 300 297 296 300 301 300 303 316 324 318 335 70 254 331 342 338 346 14 90 85 91 88 85 88 88 87 86 84 80 76 71
52 5 315 23 3 50 43 34 56 52 5 315 318 334 14 23 19 344 333 325 319 314 321 326 327 325 318 322 319 325 334 346 355 12 32 25 6 1 350 23 51 62 79 91 100 97 92 90 89 85 85 84 83 83
24 345 46 44 74 55 52 352 355 345 315 336 319 288 254 247 35 349 333 335 339 331 319 309 313 324 333 339 335 339 353 4 357 1 6 16 359 343 22 37 42 59 90 98 97 97 95 88 90 85 82 80 79 80
331 301 60 33 82 57 10 332 291 264 341 320 343 285 311 329 305 62 356 336 324 318 328 343 339 342 348 342 339 331 344 19 7 15 41 23 28 40 47 49 54 66 77 85 87 94 99 94 92 91 89 90 93 93
3 35 359 61 85 66 342 -0 352 340 342 306 44 304 298 256 3 22 2 346 346 349 343 343 337 332 328 325 324 332 351 346 20 25 35 44 49 48 52 57 64 74 83 88 90 92 92 93 94 93 91 90 89 91
6 240 343 338 68 46 35 344 16 5 14 37 39 1 351 334 360 341 0 8 336 316 319 318 309 304 312 327 350 348 0 359 48 67 71 80 87 84 72 69 78 85 88 89 88 91 89 93 92 92 91 90 88 85